GW3577 Weather Reports


Display with metric or nautical units.
time (UTC)temp
F
wind
direction
speed
MPH
gust
MPH
rain 1hr
in
rain 24hr
in
rain mn
in
humidity
%
barometer
mb
20260504070240 46 320 0.0 0.0 0.00 0.00 0.00 88 1016.5
20260504060201 46 320 0.0 0.0 0.00 0.00 0.00 84 1016.8
20260504050629 47 320 0.0 0.0 0.00 0.00 0.00 86 1016.8
20260504050126 46 320 0.0 0.0 0.00 0.00 0.00 83 1016.8
20260504045623 46 320 0.0 0.0 0.00 0.00 0.00 82 1016.8
20260504045118 46 320 0.0 0.0 0.00 0.00 0.00 83 1016.8
20260504044616 47 320 0.0 0.0 0.00 0.00 0.00 82 1016.8
20260504044112 47 320 0.0 0.0 0.00 0.00 0.00 81 1016.8
20260504043609 46 320 0.0 0.0 0.00 0.00 0.00 82 1016.8
20260504043107 46 320 0.0 0.0 0.00 0.00 0.00 81 1016.8
20260504042604 46 320 0.0 0.0 0.00 0.00 0.00 81 1016.8
20260504042100 47 320 0.0 0.0 0.00 0.00 0.00 79 1016.8
20260504041556 47 320 0.0 0.0 0.00 0.00 0.00 78 1016.8
20260504041053 47 320 0.0 0.0 0.00 0.00 0.00 77 1016.8
20260504040550 46 320 0.0 0.0 0.00 0.00 0.00 77 1016.8
20260504040047 46 320 0.0 0.0 0.00 0.00 0.00 78 1016.8
20260504035543 46 320 0.0 0.0 0.00 0.00 0.00 78 1016.8
20260504035040 46 320 0.0 0.0 0.00 0.00 0.00 79 1016.8
20260504034538 46 320 0.0 0.0 0.00 0.00 0.00 78 1016.8
20260504034034 46 320 0.0 0.0 0.00 0.00 0.00 75 1016.8
20260504033532 46 320 0.0 0.0 0.00 0.00 0.00 71 1016.8
20260504033030 46 320 0.0 0.0 0.00 0.00 0.00 73 1016.8
20260504032526 46 320 0.0 0.0 0.00 0.00 0.00 74 1016.5
20260504032023 45 320 0.0 0.0 0.00 0.00 0.00 74 1016.8
20260504031520 45 320 0.0 0.0 0.00 0.00 0.00 77 1016.8
20260504031016 45 320 0.0 0.0 0.00 0.00 0.00 77 1016.8
20260504030514 45 320 0.0 0.0 0.00 0.00 0.00 76 1016.8
20260504030010 45 320 0.0 0.0 0.00 0.00 0.00 77 1016.8
20260504025507 45 320 0.0 0.0 0.00 0.00 0.00 76 1016.5
20260504025004 45 320 0.0 0.0 0.00 0.00 0.00 75 1016.5
20260504024500 44 320 0.0 0.0 0.00 0.00 0.00 75 1016.5
20260504023958 45 320 0.0 0.0 0.00 0.00 0.00 78 1016.5
20260504023454 44 320 0.0 0.0 0.00 0.00 0.00 80 1016.5
20260504022950 44 320 0.0 0.0 0.00 0.00 0.00 80 1016.5
20260504022446 44 320 0.0 0.0 0.00 0.00 0.00 78 1016.5
20260504021943 44 320 0.0 0.0 0.00 0.00 0.00 78 1016.5
20260504021440 44 320 0.0 0.0 0.00 0.00 0.00 77 1016.5
20260504020937 44 320 0.0 0.0 0.00 0.00 0.00 75 1016.5
20260504020434 45 320 0.0 0.0 0.00 0.00 0.00 72 1016.5
20260504015931 46 320 0.0 0.0 0.00 0.00 0.00 66 1016.5
20260504015426 46 320 0.0 0.0 0.00 0.00 0.00 66 1016.1
20260504014923 46 320 0.0 0.0 0.00 0.00 0.00 67 1016.1
20260504014419 46 320 0.0 0.0 0.00 0.00 0.00 67 1016.1
20260504013916 45 320 0.0 0.0 0.00 0.00 0.00 70 1016.1
20260504013415 44 320 2.0 5.0 0.00 0.00 0.00 72 1015.8
20260504012910 44 243 0.0 0.0 0.00 0.00 0.00 74 1015.8
20260504012408 45 243 0.0 0.0 0.00 0.00 0.00 73 1015.8
20260504011905 46 243 0.0 0.0 0.00 0.00 0.00 69 1016.1
20260504011402 47 243 0.0 0.0 0.00 0.00 0.00 66 1015.8
20260504010858 47 243 0.0 0.0 0.00 0.00 0.00 65 1015.8
20260504010354 48 243 0.0 0.0 0.00 0.00 0.00 66 1015.8
20260504005850 47 243 0.0 0.0 0.00 0.00 0.00 68 1015.8
20260504005347 48 243 0.0 0.0 0.00 0.00 0.00 65 1015.8
20260504004845 48 243 0.0 0.0 0.00 0.00 0.00 66 1015.8
20260504004343 49 243 0.0 0.0 0.00 0.00 0.00 67 1015.8
20260504003839 49 243 0.0 0.0 0.00 0.00 0.00 63 1015.8
20260504003336 50 243 0.0 0.0 0.00 0.00 0.00 61 1015.8
20260504002832 51 243 0.0 0.0 0.00 0.00 0.00 56 1015.8
20260504002329 51 243 0.0 0.0 0.00 0.00 0.00 54 1015.8
20260504001827 51 243 0.0 0.0 0.00 0.00 0.00 56 1015.8
20260504001324 51 243 0.0 0.0 0.00 0.00 0.00 56 1015.8
20260504000821 52 243 0.0 0.0 0.00 0.00 0.00 55 1016.1
20260504000318 53 243 0.0 0.0 0.00 0.00 0.00 54 1015.8
20260503235815 55 243 0.0 0.0 0.00 0.00 0.00 47 1015.8
20260503235313 56 227 0.0 0.0 0.00 0.00 0.00 45 1015.8
20260503234810 57 227 0.0 0.0 0.00 0.00 0.00 41 1015.8
20260503234308 58 227 2.0 3.0 0.00 0.00 0.00 37 1015.8
20260503233806 59 227 1.0 2.0 0.00 0.00 0.00 35 1015.8
20260503233301 59 227 2.0 3.0 0.00 0.00 0.00 35 1015.8
20260503232758 60 227 2.0 3.0 0.00 0.00 0.00 34 1015.8
20260503232255 61 227 2.0 3.0 0.00 0.00 0.00 33 1015.8
20260503231753 61 227 2.0 3.0 0.00 0.00 0.00 31 1015.4
20260503231250 61 227 1.0 3.0 0.00 0.00 0.00 31 1015.4
20260503230745 62 227 4.0 6.0 0.00 0.00 0.00 30 1015.4
20260503230243 62 234 5.0 7.0 0.00 0.00 0.00 30 1015.4
20260503225741 62 243 5.0 7.0 0.00 0.00 0.00 28 1015.4
20260503225241 63 242 6.0 9.0 0.00 0.00 0.00 27 1015.4
20260503224738 63 239 6.0 8.0 0.00 0.00 0.00 29 1015.4
20260503224236 63 227 4.0 6.0 0.00 0.00 0.00 30 1015.4
20260503223733 63 241 6.0 9.0 0.00 0.00 0.00 29 1015.4
20260503223231 64 210 5.0 8.0 0.00 0.00 0.00 26 1015.4
20260503222726 64 172 3.0 5.0 0.00 0.00 0.00 27 1015.4
20260503222225 64 231 3.0 6.0 0.00 0.00 0.00 28 1015.4
20260503221723 64 252 9.0 11.0 0.00 0.00 0.00 27 1015.4
20260503221221 64 224 4.0 6.0 0.00 0.00 0.00 28 1015.4
20260503220717 64 205 6.0 9.0 0.00 0.00 0.00 28 1015.4
20260503220214 64 234 4.0 9.0 0.00 0.00 0.00 28 1015.4
20260503215711 64 225 6.0 10.0 0.00 0.00 0.00 26 1015.4
20260503215208 65 217 8.0 11.0 0.00 0.00 0.00 28 1015.4
20260503214706 65 213 5.0 8.0 0.00 0.00 0.00 28 1015.4
20260503214201 65 242 7.0 10.0 0.00 0.00 0.00 28 1015.4
20260503213655 64 242 5.0 7.0 0.00 0.00 0.00 27 1015.4
20260503213152 64 208 7.0 10.0 0.00 0.00 0.00 27 1015.4
20260503212649 64 198 6.0 9.0 0.00 0.00 0.00 27 1015.4
20260503212146 65 222 7.0 9.0 0.00 0.00 0.00 28 1015.4
20260503211644 65 216 6.0 10.0 0.00 0.00 0.00 27 1015.4
20260503211139 65 266 5.0 9.0 0.00 0.00 0.00 27 1015.4
20260503210636 65 252 8.0 11.0 0.00 0.00 0.00 27 1015.4
20260503210133 65 243 5.0 7.0 0.00 0.00 0.00 28 1015.4
20260503205628 65 258 6.0 10.0 0.00 0.00 0.00 27 1015.4
20260503205125 65 248 5.0 9.0 0.00 0.00 0.00 27 1015.4
20260503204622 66 248 11.0 14.0 0.00 0.00 0.00 27 1015.8
20260503204119 66 293 7.0 10.0 0.00 0.00 0.00 27 1015.4
20260503203616 66 258 5.0 9.0 0.00 0.00 0.00 27 1015.8
20260503203113 66 261 6.0 11.0 0.00 0.00 0.00 27 1015.8
20260503202611 66 265 8.0 11.0 0.00 0.00 0.00 28 1015.8
20260503202109 66 225 8.0 13.0 0.00 0.00 0.00 27 1015.8
20260503201607 65 234 10.0 15.0 0.00 0.00 0.00 29 1015.8
20260503201104 64 158 4.0 6.0 0.00 0.00 0.00 28 1015.8
20260503200600 65 243 10.0 14.0 0.00 0.00 0.00 29 1015.8
20260503200056 64 214 4.0 8.0 0.00 0.00 0.00 28 1015.8
20260503195554 65 237 6.0 8.0 0.00 0.00 0.00 28 1016.1
20260503195050 65 217 4.0 6.0 0.00 0.00 0.00 29 1016.1
20260503194547 64 210 5.0 7.0 0.00 0.00 0.00 28 1016.1
20260503194047 64 208 4.0 8.0 0.00 0.00 0.00 28 1016.1
20260503193544 65 216 3.0 6.0 0.00 0.00 0.00 29 1016.1
20260503193044 66 239 6.0 10.0 0.00 0.00 0.00 30 1016.5
20260503192541 65 238 7.0 10.0 0.00 0.00 0.00 30 1016.1
20260503192037 65 203 4.0 9.0 0.00 0.00 0.00 28 1016.5
20260503191534 66 271 0.0 0.0 0.00 0.00 0.00 29 1016.5
20260503191031 65 266 5.0 6.0 0.00 0.00 0.00 28 1016.5
20260503190528 65 236 8.0 10.0 0.00 0.00 0.00 28 1016.5
20260503190025 66 239 2.0 6.0 0.00 0.00 0.00 25 1016.8
20260503185521 66 327 4.0 6.0 0.00 0.00 0.00 28 1016.8
20260503185020 66 303 3.0 7.0 0.00 0.00 0.00 29 1016.8
20260503184517 64 256 4.0 6.0 0.00 0.00 0.00 31 1016.8
20260503184013 63 214 6.0 11.0 0.00 0.00 0.00 31 1016.8
20260503183510 63 162 4.0 7.0 0.00 0.00 0.00 32 1017.2
20260503183007 62 180 2.0 5.0 0.00 0.00 0.00 30 1017.2
20260503182506 63 203 2.0 8.0 0.00 0.00 0.00 33 1017.2
20260503182003 62 233 10.0 12.0 0.00 0.00 0.00 32 1017.2
20260503181500 64 257 8.0 12.0 0.00 0.00 0.00 31 1017.2
20260503180956 64 244 9.0 19.0 0.00 0.00 0.00 30 1017.5
20260503180454 63 251 5.0 8.0 0.00 0.00 0.00 31 1017.5
20260503175950 62 230 9.0 13.0 0.00 0.00 0.00 30 1017.5
20260503175449 63 252 9.0 15.0 0.00 0.00 0.00 32 1017.5
20260503174944 62 284 7.0 14.0 0.00 0.00 0.00 32 1017.5
20260503174443 62 204 5.0 9.0 0.00 0.00 0.00 33 1017.5
20260503173938 60 203 1.0 2.0 0.00 0.00 0.00 29 1017.8
20260503173434 61 237 7.0 10.0 0.00 0.00 0.00 32 1017.8
20260503172931 62 235 8.0 11.0 0.00 0.00 0.00 30 1017.8
20260503172429 63 234 5.0 6.0 0.00 0.00 0.00 30 1017.8
20260503171925 61 244 3.0 7.0 0.00 0.00 0.00 33 1017.8
20260503171422 60 235 7.0 11.0 0.00 0.00 0.00 32 1017.8
20260503170919 61 239 7.0 9.0 0.00 0.00 0.00 32 1017.8
20260503170415 62 261 5.0 9.0 0.00 0.00 0.00 32 1018.2
20260503150808 57 264 6.0 8.0 0.00 0.00 0.00 36 1019.2
20260503150303 56 36 3.0 4.0 0.00 0.00 0.00 33 1019.5
20260503140228 54 275 3.0 5.0 0.00 0.00 0.00 40 1020.0
20260503131157 52 5 6.0 9.0 0.00 0.00 0.00 41 1020.0
20260503130654 51 285 5.0 9.0 0.00 0.00 0.00 39 1020.0
20260503130152 51 1 4.0 6.0 0.00 0.00 0.00 40 1020.0
20260503120117 48 325 4.0 6.0 0.00 0.00 0.00 49 1019.2
20260503110544 41 311 0.0 0.0 0.00 0.00 0.00 63 1018.5
20260503090431 41 352 0.0 0.0 0.00 0.00 0.00 61 1016.5
20260503081347 40 302 1.0 4.0 0.00 0.00 0.00 69 1015.8
20260503080844 39 309 1.0 3.0 0.00 0.00 0.00 73 1015.8
20260503080341 40 309 0.0 0.0 0.00 0.00 0.00 71 1015.8
20260503072817 40 248 0.0 0.0 0.00 0.00 0.00 71 1015.4
20260503072314 40 248 0.0 0.0 0.00 0.00 0.00 71 1015.4
20260503071810 40 248 0.0 0.0 0.00 0.00 0.00 70 1015.4
20260503071308 42 248 3.0 4.0 0.00 0.00 0.00 66 1015.4